Date String (YYYY-MM-DD hh:mm:ss) UTC,Instrument flags,Ambient pressure (hPa),Sample flow (lpm),Bypass flow (lpm),Sample temperature (°C),Ambient temperature (°C),ASC tube jacket temperature (°C),LED temperature (°C),Box temperature (°C),Sample RH (%),Span deviation,Mass concentration (μg/m³),Mass concentration (μg/m³),Mass concentration (μg/m³)
DateTimeUTC,F1_M11,P_M11,Q1_M11,Q2_M11,T1_M11,T2_M11,T3_M11,T4_M11,T5_M11,U1_M11,ZSPAN_M11,X0_M11,X2_M11,X1_M11
2022-08-03 12:00:00,,0827.9,4.99,0.00,29.6,27.6,00.0,38.5,31.4,31.1,0000.0,0007.52,0003.64,0003.18
2022-08-03 12:01:00,,0828.0,5.00,0.00,29.6,27.7,00.0,38.5,31.4,31.1,0000.0,0007.36,0003.63,0003.19
2022-08-03 12:02:00,,0827.9,5.00,0.00,29.6,27.8,00.0,38.4,31.4,31.3,0000.0,0007.29,0003.62,0003.20
2022-08-03 12:03:00,,0827.9,5.00,0.00,29.6,28.0,00.0,38.4,31.4,31.2,0000.0,0007.20,0003.61,0003.21
2022-08-03 12:04:00,,0827.9,4.99,0.00,29.6,28.1,00.0,38.4,31.4,31.1,0000.0,0007.16,0003.59,0003.21
2022-08-03 12:05:00,,0828.0,5.00,0.00,29.6,28.2,00.0,38.4,31.5,31.1,0000.0,0006.94,0003.62,0003.22
2022-08-03 12:06:00,,0828.0,4.99,0.00,29.6,28.3,00.0,38.4,31.5,31.0,0000.0,0006.30,0003.63,0003.23
2022-08-03 12:07:00,,0828.0,5.01,0.00,29.6,28.4,00.0,38.4,31.6,30.9,0000.0,0006.38,0003.66,0003.25
2022-08-03 12:08:00,,0828.0,5.01,0.00,29.7,28.4,00.0,38.5,31.6,30.8,0000.0,0006.55,0003.71,0003.28
2022-08-03 12:09:00,,0828.1,4.99,0.00,29.7,28.5,00.0,38.5,31.6,30.7,0000.0,0006.65,0003.73,0003.30
2022-08-03 12:10:00,,0828.0,5.00,0.00,29.7,28.6,00.0,38.5,31.7,30.7,0000.0,0007.09,0003.76,0003.32
2022-08-03 12:11:00,,0828.1,5.00,0.00,29.7,28.6,00.0,38.5,31.7,30.7,0000.0,0007.95,0003.79,0003.34
2022-08-03 12:12:00,,0828.1,4.99,0.00,29.7,28.7,00.0,38.5,31.7,30.5,0000.0,0008.17,0003.81,0003.35
2022-08-03 12:13:00,,0828.1,5.00,0.00,29.8,28.7,00.0,38.5,31.8,30.3,0000.0,0008.69,0003.83,0003.36
2022-08-03 12:14:00,,0828.1,5.00,0.00,29.8,28.8,00.0,38.5,31.7,30.2,0000.0,0008.83,0003.88,0003.38
2022-08-03 12:15:00,,0828.1,5.00,0.00,29.8,28.8,00.0,38.6,31.7,30.2,0000.0,0009.02,0003.94,0003.41
2022-08-03 12:16:00,,0828.1,5.01,0.00,29.8,28.9,00.0,38.6,31.8,30.1,0000.0,0008.96,0003.93,0003.42
2022-08-03 12:17:00,,0828.1,4.99,0.00,29.9,28.9,00.0,38.6,31.8,30.0,0000.0,0008.88,0003.93,0003.43
2022-08-03 12:18:00,,0828.1,5.00,0.00,29.9,28.9,00.0,38.6,31.9,30.0,0000.0,0008.75,0003.92,0003.45
2022-08-03 12:19:00,,0828.1,4.99,0.00,29.9,28.7,00.0,38.6,31.8,29.9,0000.0,0008.72,0003.93,0003.46
2022-08-03 12:20:00,,0828.1,5.00,0.00,29.9,28.0,00.0,38.6,31.7,29.9,0000.0,0009.37,0003.96,0003.47
2022-08-03 12:21:00,,0828.1,4.99,0.00,29.8,27.7,00.0,38.6,31.6,29.8,0000.0,0009.81,0003.93,0003.49
2022-08-03 12:22:00,,0828.1,4.99,0.00,29.8,27.6,00.0,38.6,31.5,29.9,0000.0,0009.09,0003.93,0003.49
2022-08-03 12:23:00,,0828.1,5.00,0.00,29.7,27.7,00.0,38.5,31.4,30.0,0000.0,0009.08,0003.94,0003.50
2022-08-03 12:24:00,,0828.1,5.00,0.00,29.7,27.8,00.0,38.5,31.4,30.2,0000.0,0008.54,0003.93,0003.50
2022-08-03 12:25:00,,0828.1,5.01,0.00,29.6,27.9,00.0,38.5,31.4,30.6,0000.0,0008.50,0003.91,0003.49
2022-08-03 12:26:00,,0828.2,5.00,0.00,29.6,28.0,00.0,38.5,31.5,30.7,0000.0,0009.03,0003.85,0003.48
2022-08-03 12:27:00,,0828.1,4.99,0.00,29.6,28.1,00.0,38.5,31.5,30.3,0000.0,0009.31,0003.86,0003.47
2022-08-03 12:28:00,,0828.3,5.00,0.00,29.7,28.2,00.0,38.5,31.5,30.2,0000.0,0009.58,0003.88,0003.45
2022-08-03 12:29:00,,0828.2,5.00,0.00,29.7,28.3,00.0,38.5,31.6,30.2,0000.0,0009.59,0003.85,0003.43
2022-08-03 12:30:00,,0828.2,5.00,0.00,29.7,28.4,00.0,38.5,31.6,30.4,0000.0,0009.53,0003.80,0003.41
2022-08-03 12:31:00,,0828.2,5.00,0.00,29.7,28.5,00.0,38.5,31.7,30.9,0000.0,0009.20,0003.81,0003.39
2022-08-03 12:32:00,,0828.2,5.00,0.00,29.7,28.6,00.0,38.5,31.7,30.7,0000.0,0009.00,0003.82,0003.37
2022-08-03 12:33:00,,0828.3,4.99,0.00,29.8,28.6,00.0,38.5,31.7,30.5,0000.0,0009.59,0003.83,0003.36
2022-08-03 12:34:00,,0828.2,5.01,0.00,29.8,28.7,00.0,38.5,31.7,30.2,0000.0,0009.57,0003.84,0003.35
2022-08-03 12:35:00,,0828.3,5.00,0.00,29.8,28.7,00.0,38.6,31.8,30.1,0000.0,0009.43,0003.84,0003.35
2022-08-03 12:36:00,,0828.3,5.00,0.00,29.8,28.8,00.0,38.6,31.8,29.9,0000.0,0009.42,0003.85,0003.36
2022-08-03 12:37:00,,0828.3,5.00,0.00,29.8,28.8,00.0,38.6,31.7,29.8,0000.0,0008.84,0003.86,0003.35
2022-08-03 12:38:00,,0828.3,5.00,0.00,29.9,28.9,00.0,38.6,31.7,29.7,0000.0,0008.31,0003.84,0003.35
2022-08-03 12:39:00,,0828.3,4.99,0.00,29.9,28.9,00.0,38.6,31.8,29.7,0000.0,0008.00,0003.80,0003.34
2022-08-03 12:40:00,,0828.3,5.00,0.00,29.9,29.0,00.0,38.6,31.9,29.7,0000.0,0007.88,0003.80,0003.34
2022-08-03 12:41:00,,0828.3,5.00,0.00,29.9,28.8,00.0,38.6,31.8,29.8,0000.0,0007.94,0003.81,0003.34
2022-08-03 12:42:00,,0828.4,5.00,0.00,29.9,28.0,00.0,38.6,31.6,29.8,0000.0,0008.30,0003.79,0003.34
2022-08-03 12:43:00,,0828.4,4.99,0.00,29.8,27.4,00.0,38.6,31.5,29.9,0000.0,0007.96,0003.76,0003.34
2022-08-03 12:44:00,,0828.4,5.00,0.00,29.8,27.3,00.0,38.5,31.4,29.8,0000.0,0006.80,0003.73,0003.34
2022-08-03 12:45:00,,0828.4,5.00,0.00,29.7,27.3,00.0,38.5,31.3,30.0,0000.0,0006.71,0003.70,0003.33
2022-08-03 12:46:00,,0828.4,5.00,0.00,29.6,27.4,00.0,38.5,31.4,30.1,0000.0,0007.48,0003.70,0003.34
2022-08-03 12:47:00,,0828.4,5.01,0.00,29.6,27.6,00.0,38.5,31.4,30.3,0000.0,0007.68,0003.66,0003.32
2022-08-03 12:48:00,,0828.4,5.00,0.00,29.6,27.7,00.0,38.5,31.4,30.5,0000.0,0007.68,0003.64,0003.31
2022-08-03 12:49:00,,0828.4,4.99,0.00,29.6,27.9,00.0,38.5,31.4,30.5,0000.0,0007.64,0003.63,0003.31
2022-08-03 12:50:00,,0828.4,5.00,0.00,29.6,28.0,00.0,38.5,31.5,30.2,0000.0,0007.65,0003.64,0003.31
2022-08-03 12:51:00,,0828.4,4.99,0.00,29.6,28.1,00.0,38.4,31.5,30.2,0000.0,0007.69,0003.64,0003.31
2022-08-03 12:52:00,,0828.4,5.01,0.00,29.6,28.2,00.0,38.4,31.5,30.1,0000.0,0007.68,0003.64,0003.31
2022-08-03 12:53:00,,0828.5,4.99,0.00,29.6,28.3,00.0,38.4,31.5,30.1,0000.0,0006.99,0003.61,0003.31
2022-08-03 12:54:00,,0828.4,5.00,0.00,29.6,28.4,00.0,38.5,31.6,30.2,0000.0,0006.72,0003.59,0003.30
2022-08-03 12:55:00,,0828.4,5.00,0.00,29.7,28.5,00.0,38.5,31.6,30.2,0000.0,0006.68,0003.59,0003.30
2022-08-03 12:56:00,,0828.4,4.99,0.00,29.7,28.6,00.0,38.5,31.6,30.2,0000.0,0006.74,0003.60,0003.31
2022-08-03 12:57:00,,0828.4,5.01,0.00,29.7,28.6,00.0,38.5,31.7,30.3,0000.0,0005.97,0003.58,0003.30
2022-08-03 12:58:00,,0828.4,5.00,0.00,29.7,28.7,00.0,38.5,31.7,30.5,0000.0,0005.51,0003.56,0003.30
2022-08-03 12:59:00,,0828.4,5.00,0.00,29.8,28.7,00.0,38.5,31.7,30.8,0000.0,0005.55,0003.60,0003.31
